Regional Weather Roundup
Issued by NWS

Home | Current Version | Previous Version | Graphics & Text | Print | Product List | Glossary On
Versions: 1 2 3 4 5 6 7 8 9 10 11 12 13 14 15 16 17 18 19 20 21 22 23 24 25 26 27
000
ASUS45 KSLC 300410
RWRUT

UTAH REGIONAL WEATHER ROUNDUP
NATIONAL WEATHER SERVICE SALT LAKE CITY UT
1000 PM MDT WED OCT 29 2014

UTZ001>011-023>025-300500-

NORTHERN UTAH

CITY           SKY/WX    TMP DP  RH WIND       PRES   REMARKS
BRIGHAM CITY   CLEAR     46  29  51 CALM      30.26S
HILL AFB       CLEAR     51  25  36 E9        30.26S
LOGAN          CLEAR     41  30  65 CALM      30.27R
OGDEN          CLEAR     48  27  44 CALM      30.25S
PROVO AIRPORT  CLEAR     43  27  52 E3        30.27R
SALT LAKE CITY PTCLDY    50  31  48 S7        30.24S
VERNAL         CLEAR     43  25  49 W6        30.28R
WENDOVER       CLEAR     46  25  42 CALM      30.25R
HEBER CITY     CLEAR     36  23  60 E3        30.31R
WEST JORDAN    CLEAR     48  28  46 SW6       30.27S

$$

UTZ012>022-026-027-300500-

SOUTHERN/CENTRAL UTAH

CITY           SKY/WX    TMP DP  RH WIND       PRES   REMARKS
BLANDING       PTCLDY    43  14  31 NE12      30.37S
BRYCE CANYON   PTCLDY    30  19  63 W7        30.38S WCI  23
CEDAR CITY     CLEAR     49  17  28 S5        30.25S
DELTA          CLEAR     45  22  39 NE9       30.24S
HANKSVILLE       N/A     45  14  29 N6        30.28R
MILFORD        PTCLDY    46  20  35 CALM      30.24R
MOAB/CYNLANDS  CLEAR     44  12  27 CALM      30.25R
PRICE          CLEAR     44  16  32 NE8       30.31R
ST GEORGE      CLEAR     61  18  18 SE3       30.15R
KANAB            N/A     48  21  34 N7        30.28R

$$

REGIONAL REPORTS     COLORADO/ARIZONA

CITY           SKY/WX    TMP DP  RH WIND       PRES   REMARKS
CRAIG, CO      CLEAR     34  23  64 CALM      30.32R
GRAND JUNCTION CLEAR     38  19  46 E5        30.28R WCI  34
RIFLE          CLEAR     44  20  38 NE3       30.31R
MONTROSE       PTCLDY    40  23  50 SE9       30.34S WCI  34
CORTEZ         CLEAR     37  14  38 NE7       30.32R WCI  32
PAGE, AZ       CLEAR     56  20  24 CALM      30.23R
GRAND CANYON   CLEAR     33  15  47 CALM      30.34R
KINGMAN          N/A    N/A N/A N/A MISG      30.14R
FLAGSTAFF      PTCLDY    40  23  50 CALM      30.36R

$$

REGIONAL REPORTS    NEVADA/IDAHO/WYOMING

CITY           SKY/WX    TMP DP  RH WIND       PRES   REMARKS
LAS VEGAS, NV  CLEAR     70  20  15 SW8       30.04R
ELY            CLEAR     42  17  36 S8        30.30R
ELKO           CLEAR     41  25  53 S5        30.23S
POCATELLO, ID  CLOUDY    54  33  45 S10       30.25R
BURLEY         CLEAR     45  35  68 CALM      30.23R
EVANSTON, WY   PTCLDY    43  24  47 S6        30.34S
ROCK SPRINGS   CLEAR     42  28  57 N7        30.32R
KEMMERER       PTCLDY    39  30  70 SW3       30.34S

$$



USA.gov is the U.S. government's official web portal to all federal, state and local government web resources and services.